Regional Weather Roundup
Issued by NWS

Home | Current Version | Previous Version | Graphics & Text | Print | Product List | Glossary On
Versions: 1 2 3 4 5 6 7 8 9 10 11 12 13 14 15 16 17 18 19 20 21 22 23 24 25 26 27 28
000
ASUS45 KTFX 221410
RWRMT
MONTANA REGIONAL WEATHER ROUNDUP
NATIONAL WEATHER SERVICE GREAT FALLS MT
700 AM MST WED FEB 22 2017

NOTE: "FAIR" INDICATES FEW OR NO CLOUDS BELOW 12000 FEET WITH NO
SIGNIFICANT WEATHER AND/OR OBSTRUCTIONS TO VISIBILITY.

MTZ001>007-043-221500-
WEST OF THE DIVIDE

CITY           SKY/WX    TMP DP  RH WIND       PRES   REMARKS
KALISPELL      MOCLDY    28  27  96 S7        29.93S WCI  21
MISSOULA       CLOUDY    33  31  92 N3        29.97R
BUTTE          CLOUDY    26  23  88 S5        29.89S
MULLAN PASS    LGT SNOW  24  22  91 CALM      29.87S FOG
ANACONDA         N/A     27  25  93 N3        29.91S
DEER LODGE       N/A     28  28 100 NE3       29.94S
EUREKA           N/A     28  27  93 CALM      29.96R VSB 0
HAMILTON         N/A     34  28  80 CALM      29.95S
LIBBY            N/A     30  30 100 CALM      29.98R
PLAINS           N/A     31  26  81 CALM      29.98R
RONAN            N/A     34  30  85 S1        29.99R
$$

MTZ008-052>055-221500-
SOUTHWEST MONTANA

CITY           SKY/WX    TMP DP  RH WIND       PRES   REMARKS
BOZEMAN        LGT SNOW  34  25  69 NW10      29.90R WCI  26
DILLON         CLOUDY    30  21  69 SW10      29.88S WCI  21
W YELLOWSTONE  MOCLDY    23  19  86 SW10      29.89F FOG     WCI  12
ENNIS          CLOUDY    32  19  59 S12       29.94S WCI  23
THREE FORKS      N/A     37  37 100 W6        29.90R
TWIN BRIDGES     N/A     31  20  63 CALM      29.90R
$$

MTZ009-010-012-014-046-048-049-054-221500-
EAST SLOPES AND CENTRAL MONTANA

CITY           SKY/WX    TMP DP  RH WIND       PRES   REMARKS
CUT BANK       CLOUDY    23  19  85 NW9       29.84R WCI  13
GREAT FALLS    CLOUDY    31  29  92 SW9       29.85R WCI  23
MALMSTROM AFB  LGT RAIN  31  32 100 SW6       29.86S WCI  25
HELENA         CLOUDY    36  26  67 W9        29.89R WCI  29
AUGUSTA        MOCLDY    28  25  88 W9        29.83S WCI  19
BOWMANS CRNR   MOCLDY    29  26  87 SW10      29.82F WCI  20
CHOTEAU          N/A     32  25  74 W6        29.85S WCI  26
CONRAD           N/A     27  27 100 MISG      29.88R
POWER          MOCLDY    29  29 100 CALM      29.84R
RAYNESFORD     FLURRIES  32  30  91 W9        29.85R WCI  24
ULM            MOCLDY    30  28  94 MISG      29.86R
$$

MTZ011-013-016-021-045-047-050-051-221500-
NORTH CENTRAL MONTANA

CITY           SKY/WX    TMP DP  RH WIND       PRES   REMARKS
HAVRE          CLOUDY    31  30  96 E6        29.88S WCI  25
LEWISTOWN      LGT SNOW  30  29  96 W8        29.84R FOG     WCI  22
N BAR RANCH    LGT SNOW  30  28  93 NW9       29.83R WCI  22
CHINOOK          N/A     30  30 100 CALM      29.90R
DENTON         LGT SNOW  31  31  99 E6        29.82R WCI  26
FORT BENTON      N/A     34  34 100 N3        29.89R
GEYSER         FLURRIES  32  30  94 W9        29.83S WCI  24
GRASS RANGE    FLURRIES  32  31  95 W10       29.80R WCI  23
JUDITH GAP     LGT SNOW  29  28  97 N10       29.82R WCI  20
ROY            LGT SNOW  30  30  99 MISG      29.83R FOG
STANFORD       FLURRIES  31  30  95 NW14      29.83R WCI  21
WINIFRED       LGT SNOW  30 N/A N/A NW9       29.84R VSB 5/8 WCI  22
$$

MTZ017>020-022>027-061-062-221500-
NORTHEAST MONTANA

CITY           SKY/WX    TMP DP  RH WIND       PRES   REMARKS
GLASGOW        CLOUDY    31  29  92 NW6       29.87R WCI  25
JORDAN           N/A     31  28  89 N10       29.84R WCI  22
SIDNEY         FLURRIES  31  30  96 N15       29.81R WCI  20
WOLF POINT     CLOUDY    33  28  81 NE8       29.87R WCI  26
PLENTYWOOD       N/A     28  25  86 N12       29.84R WCI  18
POPLAR           N/A     30  28  93 N10G16    29.86R WCI  21
SCOBEY           N/A     27  18  69 N7        29.84R WCI  20
$$

MTZ028>42-056>058-221500-
SOUTHCENTRAL AND SOUTHEAST MONTANA

CITY           SKY/WX    TMP DP  RH WIND       PRES   REMARKS
BAKER          LGT SNOW  32  32 100 NW12      29.75R WCI  23
BILLINGS       CLOUDY    37  27  67 NW10      29.84R WCI  30
LIVINGSTON     CLOUDY    33  25  72 SW22G28   29.85R WCI  21
MILES CITY     LGT RAIN  35  34  96 N12       29.78R WCI  27
BIG TIMBER     CLOUDY    34  25  69 W22       29.86R WCI  22
EKALAKA          N/A     34  30  85 W7        29.73R WCI  28
FORSYTH          N/A     34  34 100 NW9       29.80R WCI  26
HARLOWTON      MOCLDY    32  26  80 W17       29.83R WCI  21
LAUREL           N/A     39  24  55 W13       29.84R WCI  31
$$

REGIONAL REPORTS...DAKOTAS

CITY           SKY/WX    TMP DP  RH WIND       PRES   REMARKS
WILLISTON      LGT SNOW  31  28  89 N12       29.81S FOG     WCI  22
MINOT          CLOUDY    32  28  85 N15       29.77R WCI  22
DICKINSON      CLOUDY    30  29  96 NE13      29.71R FOG     WCI  20
BEACH            N/A    N/A N/A N/A MISG        N/A
CROSBY         CLOUDY    30  28  93 N13       29.85R WCI  20
TIOGA          CLOUDY    28  28 100 NE14      29.80S WCI  17
WATFORD CITY   FLURRIES  30  30 100 NE12      29.79R WCI  21
BISMARCK       LGT SNOW  35  33  92 NW3       29.72R FOG
GRAND FORKS    CLOUDY    34  30  85 N14       29.71R WCI  25
FARGO          FOG       33  33 100 N10       29.67R VSB 1/2 WCI  25
BUFFALO SD       N/A     34  31  88 NW13      29.64R WCI  25
RAPID CITY     CLOUDY    45  29  53 W18       29.71R
$$

REGIONAL REPORTS...WYOMING/IDAHO/WASHINGTON

CITY           SKY/WX    TMP DP  RH WIND       PRES   REMARKS
GILLETTE       CLOUDY    33  24  69 W9        29.80R WCI  25
SHERIDAN       PTCLDY    33  21  61 W7        29.81R WCI  27
BUFFALO WY     PTCLDY    38  13  35 NW12      29.79S WCI  30
CODY           PTCLDY    35  16  45 W10G21    29.84R WCI  27
YELLOWSTONE LA   N/A     16  15  96 W6        29.88S WCI   7
IDAHO FALLS    PTCLDY    29  27  92 SW18      29.96F WCI  16
SALMON         CLOUDY    30  28  93 CALM      29.94F
BOISE          PTCLDY    31  26  82 E3        30.01S
SPOKANE        LGT SNOW  32  31  96 CALM      30.01S FOG
$$

REGIONAL REPORTS...ALBERTA

CITY           SKY/WX    TMP DP  RH WIND       PRES   REMARKS
EDMONTON       CLOUDY    23  19  86 N2        29.96R
CALGARY        LGT SNOW  27  25  93 N10       29.90R FOG     WCI  17
LETHBRIDGE     CLOUDY    30  30 100 NW9       29.88R WCI  22
MEDICINE HAT   MOCLDY    30  30 100 N5        29.89R
WATERTON GATE    N/A     30  19  64 SW12        N/A  WCI  21
MILK RIVER       N/A     27  25  93 W7          N/A  WCI  19
$$

REGIONAL REPORTS...SASKATCHEWAN

CITY           SKY/WX    TMP DP  RH WIND       PRES   REMARKS
SWIFT CURRENT  CLOUDY    27  27 100 NW5       29.87R FOG
REGINA         CLOUDY    28  25  86 NW6       29.87R WCI  22
SASKATOON      MOCLDY    28  27  93 W7        29.88R WCI  21
CYPRESS HILLS    N/A     21  18  86 CALM        N/A
VAL MARIE        N/A     27  23  86 N5          N/A
ROCKGLEN         N/A     27  23  86 NE6         N/A  WCI  20
ASSINIBOIA       N/A     25  19  80 N9          N/A  WCI  15
$$




USA.gov is the U.S. government's official web portal to all federal, state and local government web resources and services.